Voltar ao catálogo

OUTPOST MISSION 2

AtivoCiênciaSSO
NORAD 58334·PAYLOAD·🇺🇸 United States
Este nome de satélite ainda não foi confirmado por fontes oficiais.

Lançado Nov 11, 2023 de Vandenberg Space Force Base

Loading…

Próximas Passagens (próximas 24 horas)

TLE

AtualizadoSource: Space-Track

Época: Sep 14, 2026, 21:47 UTC

1 58334U 23174CG  26257.90796271  .00052287  00000-0  53729-3 0  9996
2 58334  97.3941 354.7258 0004673 143.5670 216.5908 15.64739866159829

Acompanhe OUTPOST MISSION 2 em tempo real com AllMySat

Download on the App Store